[[{"header":{"parameterUnit":"m.s-1","parameterCategory":1,"la1":30.2991,"la2":30.254,"lo1":-89.0895,"lo2":-89.0444,"dy":0.0017,"dx":0.0017,"nx":28,"ny":28,"refTime":"2023-09-06T09:00:00:Z","depth":0,"parameterNumber":2,"parameterNumberName":"U-component_of_WINDS"},"data":[0,0,0,0,0,0,0,0,0,0,0,0,0,0,0,0,0,0,0,0,0,0,0,0,0,0,0,0,0,0,0,0,0,0,0,0,0,0,0,0,0,0,0,0,0,0,0,0,0,0,0,0,0,0,0,0,0,0,2.9701,2.9702,0,2.9765,2.9766,2.9766,2.9692,2.969,2.9687,2.9684,2.9751,2.9755,2.9759,0,0,0,0,0,0,0,0,0,0,0,0,0,2.9515,2.9519,2.9701,2.9702,2.9703,2.9765,2.9766,2.9767,2.9693,2.9689,2.9686,2.9683,2.9749,2.9754,2.976,0,0,0,0,0,0,0,0,0,0,0,0,0,2.9589,2.952,2.9701,2.9673,2.9672,2.9765,2.9766,2.9767,2.9694,2.9689,2.9685,2.9681,2.9748,2.9754,2.976,2.9884,0,0,2.978,2.9783,0,0,0,0,0,0,0,0,2.9585,2.9596,2.9677,2.9676,2.9674,2.9716,2.9724,2.9806,2.9695,2.9685,2.9684,2.9679,2.9743,2.9749,2.977,2.9887,2.989,2.9781,2.9785,2.9788,2.9789,0,0,0,0,0,0,0,2.958,2.9593,2.9726,2.9678,2.9676,2.9658,2.9664,2.9739,2.9737,2.9686,2.9681,2.9689,2.9741,2.9764,2.9772,2.9891,2.9781,2.9786,2.9791,2.9793,3.011,3.0114,0,0,0,0,0,0,2.9578,2.9589,2.9724,2.9728,2.9618,2.9664,2.9671,2.9707,2.9736,2.9736,2.9692,2.9685,2.9755,2.9764,2.9774,2.9919,2.9788,2.9794,2.9797,3.0105,3.0111,3.0116,0,0,0,0,0,0,2.9574,2.9591,2.9722,2.9657,2.9673,2.9672,2.9713,2.971,2.9733,2.9741,2.974,2.9717,2.9752,2.9764,2.9856,2.992,2.9797,2.9803,3.01,3.0107,3.0113,3.0211,0,0,0,0,0,0,2.9569,2.959,2.9637,2.9659,2.9676,2.9804,2.9717,2.9715,2.9745,2.9736,2.9763,2.9764,2.975,2.9847,2.9863,2.9927,2.9808,3.0094,3.0103,3.0111,3.0202,3.0221,3.0236,0,0,0,0,0,2.9563,2.9663,2.964,2.9657,2.9735,2.9808,2.9818,2.98,2.975,2.9798,2.9802,2.9763,2.9911,2.9857,2.9874,2.9941,3.009,3.0101,3.011,3.0195,3.0217,3.0236,0,0,0,0,0,0,2.965,2.9666,2.964,2.975,2.9778,2.9795,2.9855,2.9824,2.9867,2.9857,2.9833,2.9839,2.9937,2.9948,2.9889,3.0061,2.9992,3.0006,3.0051,3.0072,3.0088,3.0083,2.9813,0,0,0,0,0,2.9682,2.9739,2.975,2.9846,2.9861,2.9856,2.9887,2.987,2.9898,2.991,2.9921,2.995,3.0002,3.0037,3.0086,3.0203,3.0208,3.0258,3.0275,3.0288,3.0301,3.0362,3.0384,3.0149,3.0149,3.0149,0,0,2.9749,2.9764,2.9802,2.9864,2.9884,2.9943,2.9866,2.9933,2.9977,2.992,3.0007,3.0016,3.0047,3.0151,3.0198,3.0164,3.0367,3.0301,3.0312,3.0317,3.0375,3.0397,3.0417,3.0156,3.0154,3.0153,0,0,2.99,2.9919,3.0,3.0021,3.0051,3.0046,3.0066,3.0087,3.009,3.0177,3.0135,3.0187,3.0279,3.0301,3.0325,3.0483,3.0449,3.05,3.0588,3.0648,3.0667,3.0683,3.0738,3.0759,3.0512,3.0513,3.0513,0,2.998,3.0068,3.0046,3.0115,3.0143,3.0092,3.0174,3.0195,3.0241,3.0261,3.0221,3.0334,3.0351,3.046,3.0498,3.0519,3.054,3.0497,3.0666,3.0682,3.0697,3.0749,3.077,3.0519,3.0518,3.0517,3.0517,0,3.0163,3.0225,3.0287,3.0331,3.0365,3.0441,3.0429,3.0467,3.0447,3.0446,3.0534,3.0552,3.0603,3.0628,3.0609,3.0734,3.0711,3.0669,3.0599,3.0725,3.0774,3.0795,3.0527,3.0525,3.0523,3.0522,0,0,3.0374,3.0402,3.0425,3.0443,3.0472,3.0519,3.0592,3.0641,3.0673,3.0705,3.0765,3.0842,3.0803,3.083,3.0813,3.0866,3.0989,3.0817,3.0818,3.0848,3.1125,3.1156,3.118,3.0966,3.0969,3.0972,3.1122,0,3.0525,3.065,3.0631,3.0752,3.0807,3.0759,3.0822,3.0846,3.0847,3.0894,3.0895,3.095,3.0895,3.091,3.096,3.0963,3.1044,3.0952,3.1021,3.1023,3.1014,3.1206,3.1239,3.138,3.1141,3.1145,3.1147,0,3.0719,3.0757,3.0883,3.0901,3.0924,3.0981,3.1023,3.1069,3.1095,3.1092,3.1121,3.1094,3.1165,3.1094,3.1191,3.113,3.1156,3.1162,3.1167,3.1172,3.1093,3.1216,3.1425,3.1446,3.1177,3.1175,3.1173,0,3.0859,3.0942,3.1027,3.1044,3.1068,3.1109,3.112,3.1142,3.1172,3.1209,3.1228,3.1273,3.1298,3.1333,3.1319,3.1268,3.1419,3.1347,3.1418,3.1418,3.1452,3.145,3.1667,3.147,3.147,3.1469,3.1469,0,3.103,3.1109,3.109,3.1143,3.1229,3.1205,3.1291,3.1297,3.1316,3.1369,3.133,3.138,3.1358,3.1407,3.1396,3.1478,3.149,3.1489,3.1485,3.1492,3.1492,3.1509,3.1499,3.1475,3.1474,3.1472,3.1472,0,3.1201,3.1192,3.1281,3.1296,3.1301,3.1364,3.1376,3.1425,3.1421,3.1488,3.1502,3.1498,3.1553,3.1541,3.1602,3.1595,3.1697,3.1682,3.1689,3.1685,3.1756,3.175,3.1992,3.2022,3.1806,3.1808,3.1809,0,3.1311,3.137,3.139,3.1422,3.1437,3.1489,3.1519,3.1497,3.153,3.1563,3.1608,3.1659,3.1698,3.1788,3.179,3.1836,3.1821,3.1902,3.1827,3.1832,3.1821,3.1818,3.1823,3.1917,3.192,3.1922,3.1924,0,3.1507,3.1499,3.1543,3.1586,3.1623,3.1655,3.1684,3.1713,3.1693,3.1732,3.1787,3.1817,3.1878,3.1929,3.1971,3.1983,3.195,3.1947,3.1966,3.1974,3.1975,3.1975,3.1729,3.1942,3.194,3.1939,3.1938,3.1937,3.1651,3.1701,3.1722,3.1772,3.1791,3.1818,3.1865,3.1866,3.1912,3.1959,3.1943,3.2006,3.2028,3.2081,3.2097,3.2146,3.2115,3.2143,3.215,3.2157,3.2165,3.1967,3.2153,3.2153,3.2152,3.2152,3.2151,0,3.1844,3.1855,3.1901,3.1942,3.1982,3.1946,3.1976,3.2011,3.2066,3.2089,3.2129,3.2191,3.224,3.2245,3.229,3.2328,3.2314,3.2341,3.2338,3.2341,3.219,3.2169,3.2351,3.2351,3.2351,3.2351,3.2351,3.2351,3.195,3.2031,3.2025,3.2116,3.2126,3.2186,3.2206,3.223,3.2249,3.232,3.236,3.2362,3.2378,3.2424,3.2467,3.2467,3.2485,3.2518,3.2512,3.2372,3.2352,3.2333,3.2313,3.2522,3.2522,3.2659,3.266,3.2661]},{"header":{"parameterUnit":"m.s-1","parameterCategory":1,"la1":30.2991,"la2":30.254,"lo1":-89.0895,"lo2":-89.0444,"dy":0.0017,"dx":0.0017,"nx":28,"ny":28,"refTime":"2023-09-06T09:00:00:Z","depth":0,"parameterNumber":3,"parameterNumberName":"V-component_of_WINDS"},"data":[0,0,0,0,0,0,0,0,0,0,0,0,0,0,0,0,0,0,0,0,0,0,0,0,0,0,0,0,0,0,0,0,0,0,0,0,0,0,0,0,0,0,0,0,0,0,0,0,0,0,0,0,0,0,0,0,0,0,4.3913,4.3913,0,4.3986,4.3987,4.3988,4.3944,4.3942,4.394,4.3938,4.4007,4.4011,4.4014,0,0,0,0,0,0,0,0,0,0,0,0,0,4.3729,4.3733,4.3913,4.3914,4.3915,4.3986,4.3987,4.3988,4.3944,4.3942,4.3939,4.3937,4.4006,4.401,4.4015,0,0,0,0,0,0,0,0,0,0,0,0,0,4.3806,4.3734,4.3912,4.3901,4.3901,4.3986,4.3987,4.3988,4.3945,4.3941,4.3938,4.3935,4.4004,4.401,4.4015,4.4113,0,0,4.4033,4.4035,0,0,0,0,0,0,0,0,4.3802,4.3813,4.3902,4.3902,4.3902,4.3953,4.3947,4.403,4.3945,4.3928,4.3938,4.3934,4.3991,4.3998,4.4018,4.4116,4.4119,4.4033,4.4037,4.4039,4.4041,0,0,0,0,0,0,0,4.3796,4.3809,4.3941,4.3903,4.3904,4.3891,4.3898,4.3963,4.3976,4.3929,4.3926,4.3936,4.399,4.4013,4.4019,4.412,4.4033,4.4038,4.4042,4.4044,4.4301,4.4304,0,0,0,0,0,0,4.3793,4.3805,4.3939,4.3944,4.3843,4.3897,4.3905,4.3939,4.3975,4.3978,4.3938,4.3934,4.4005,4.4013,4.4022,4.4137,4.4039,4.4044,4.4048,4.4297,4.4301,4.4305,0,0,0,0,0,0,4.3789,4.3805,4.3936,4.3874,4.3889,4.3903,4.3942,4.3943,4.3965,4.3982,4.3984,4.3959,4.4002,4.4014,4.4091,4.4139,4.4047,4.4052,4.4293,4.4299,4.4303,4.437,0,0,0,0,0,0,4.3784,4.3804,4.3843,4.3875,4.3893,4.4006,4.3945,4.3946,4.3975,4.397,4.4002,4.4004,4.4001,4.4082,4.4096,4.4145,4.4057,4.4289,4.4296,4.4302,4.4363,4.4376,4.4388,0,0,0,0,0,4.3777,4.3857,4.3845,4.3861,4.3942,4.4009,4.4019,4.4015,4.398,4.4017,4.4028,4.4003,4.4132,4.4091,4.4106,4.4157,4.4286,4.4294,4.4301,4.4358,4.4374,4.4387,0,0,0,0,0,0,4.3828,4.3861,4.3848,4.3941,4.3973,4.4001,4.4049,4.4032,4.4073,4.4066,4.4057,4.4065,4.4145,4.4159,4.4113,4.4253,4.4203,4.4214,4.4241,4.4256,4.4268,4.4262,4.4061,0,0,0,0,0,4.3851,4.3904,4.393,4.4009,4.4026,4.4035,4.4064,4.4058,4.409,4.4102,4.4119,4.4149,4.4196,4.4227,4.4271,4.4365,4.4371,4.4408,4.442,4.443,4.4439,4.4488,4.4505,4.433,4.433,4.433,0,0,4.3897,4.3922,4.3955,4.402,4.4044,4.4097,4.4046,4.4105,4.4144,4.4111,4.4185,4.4198,4.4231,4.4317,4.4355,4.4331,4.4489,4.444,4.4448,4.4451,4.4498,4.4514,4.4529,4.4336,4.4335,4.4334,0,0,4.4008,4.4033,4.4101,4.4127,4.4164,4.417,4.4186,4.4218,4.4226,4.4301,4.4276,4.4322,4.4403,4.4427,4.445,4.4571,4.4548,4.4586,4.4649,4.4697,4.471,4.4722,4.4763,4.4779,4.4595,4.4595,4.4595,0,4.4059,4.4141,4.4138,4.4199,4.4228,4.4202,4.427,4.4294,4.4343,4.4362,4.4335,4.4437,4.4457,4.4547,4.4577,4.4597,4.4614,4.4581,4.4709,4.4721,4.4732,4.4771,4.4787,4.4599,4.4599,4.4598,4.4598,0,4.4202,4.4259,4.431,4.436,4.4394,4.4458,4.4463,4.4498,4.4489,4.4497,4.4572,4.4596,4.4644,4.4666,4.4657,4.4755,4.4738,4.471,4.466,4.4753,4.4789,4.4805,4.4605,4.4604,4.4602,4.4601,0,0,4.4345,4.4394,4.4412,4.4434,4.4474,4.4517,4.458,4.4629,4.4657,4.4693,4.4743,4.4813,4.4788,4.4814,4.4808,4.485,4.4942,4.4817,4.4817,4.4838,4.5048,4.5068,4.5085,4.4928,4.4931,4.4934,4.5045,0,4.4457,4.4568,4.4568,4.4669,4.4721,4.4697,4.4752,4.4781,4.479,4.4833,4.4842,4.4892,4.4855,4.4871,4.4912,4.4922,4.4984,4.4914,4.4973,4.4975,4.4964,4.5105,4.5125,4.5229,4.5059,4.5062,4.5064,0,4.4602,4.4644,4.4751,4.4783,4.4805,4.4854,4.4898,4.4941,4.4973,4.4976,4.5006,4.4994,4.5055,4.5004,4.5088,4.504,4.5064,4.5073,4.5077,4.508,4.5023,4.511,4.5262,4.5277,4.5086,4.5084,4.5083,0,4.4694,4.4776,4.4851,4.4871,4.4911,4.4945,4.4963,4.4992,4.5021,4.506,4.5078,4.5123,4.5147,4.518,4.5179,4.5143,4.5263,4.5213,4.5266,4.5266,4.529,4.5288,4.5447,4.5309,4.5309,4.5309,4.5308,0,4.4817,4.4883,4.4893,4.4938,4.5011,4.5009,4.5081,4.5095,4.5121,4.5168,4.515,4.5194,4.5191,4.5235,4.5235,4.5302,4.5314,4.5316,4.5315,4.5317,4.5316,4.5331,4.5323,4.5313,4.5312,4.5311,4.531,0,4.493,4.494,4.5019,4.5051,4.5061,4.5113,4.5138,4.5181,4.5189,4.5248,4.5262,4.5274,4.5324,4.5328,4.5385,4.5385,4.5467,4.5459,4.5457,4.5454,4.5506,4.5501,4.5678,4.57,4.555,4.5552,4.5553,0,4.5008,4.5058,4.5096,4.5127,4.5147,4.5197,4.5227,4.5227,4.5259,4.53,4.5337,4.5386,4.5425,4.5506,4.5519,4.5563,4.5554,4.5613,4.556,4.556,4.5553,4.5549,4.5553,4.5623,4.5624,4.5626,4.5627,0,4.5143,4.5146,4.5191,4.5238,4.5276,4.5312,4.5346,4.5372,4.5376,4.5412,4.5465,4.5495,4.5555,4.5603,4.5646,4.5662,4.5645,4.5644,4.5658,4.5659,4.5655,4.5656,4.5482,4.5639,4.5638,4.5637,4.5636,4.5636,4.5239,4.5283,4.5316,4.5367,4.5393,4.5426,4.5467,4.5481,4.5526,4.5576,4.5573,4.563,4.566,4.5716,4.5736,4.5779,4.5759,4.578,4.5784,4.5789,4.5794,4.565,4.5787,4.5787,4.5786,4.5786,4.5786,0,4.5372,4.5393,4.544,4.5489,4.5529,4.5512,4.5549,4.5582,4.5634,4.5664,4.5704,4.5763,4.581,4.5827,4.5872,4.5904,4.5897,4.5916,4.5912,4.5916,4.581,4.5793,4.592,4.592,4.592,4.592,4.592,4.592,4.5446,4.5518,4.5524,4.5609,4.5629,4.5686,4.5709,4.5738,4.5762,4.583,4.587,4.5881,4.5906,4.5953,4.5994,4.5998,4.6014,4.6036,4.6036,4.5937,4.5923,4.591,4.5893,4.604,4.604,4.6137,4.6138,4.6139]}]]